Preview of NWS' New Version of Forecast
This preview is not operational and should not be used for support decisions.

Regional Weather Roundup (RWR)

Issued by National Weather Service (NWS)

                            
000
ASUS46 KSEW 170010
RWRWA 

WASHINGTON REGIONAL WEATHER ROUNDUP
NATIONAL WEATHER SERVICE SEATTLE WA
500 PM PDT TUE JUL 16 2019

NOTE:"FAIR" INDICATES FEW OR NO CLOUDS BELOW 12,000 FEET WITH NO 
SIGNIFICANT WEATHER AND/OR OBSTRUCTIONS TO VISIBILITY.

WAZ507-509-555>559-170100-
SEATTLE, TACOMA, EVERETT, AND VICINITY
  
CITY           SKY/WX    TMP DP  RH WIND       PRES   REMARKS
EVERETT        SUNNY     75  53  46 W8        29.97F                  
6HR MIN TEMP:  68; 6HR MAX TEMP:  77;                                

BOEING FIELD   MOSUNNY   79  51  37 SW5       29.94F                  
6HR MIN TEMP:  69; 6HR MAX TEMP:  80;                                

RENTON         MOSUNNY   80  55  42 CALM      29.94F                  
6HR MIN TEMP:  69; 6HR MAX TEMP:  81;                                

SEATAC AIRPORT PTSUNNY   79  50  36 CALM      29.96F                  
6HR MIN TEMP:  67; 6HR MAX TEMP:  80;                                

JBLM-MCCHORD   PTSUNNY   78  58  51 SW10      29.96F                  
6HR MIN TEMP:  71; 6HR MAX TEMP:  80;                                

PUYALLUP       PTSUNNY   75  54  46 CALM      29.97F                  
BREMERTON      PTSUNNY   77  56  48 SW9       29.95F                  
6HR MIN TEMP:  68; 6HR MAX TEMP:  79;                                

JBLM-FT LEWIS  PTSUNNY   77  61  57 SW10      29.95F                  
6HR MIN TEMP:  72; 6HR MAX TEMP:  78; 6HR PCP: TRACE;                

TACOMA NARROWS PTSUNNY   75  53  46 S7        29.96F                  
6HR MIN TEMP:  66; 6HR MAX TEMP:  76;                                

$$
 
WAZ001-503-506-510-514-515-170100-
NORTH INTERIOR
  
CITY           SKY/WX    TMP DP  RH WIND       PRES   REMARKS
BELLINGHAM     SUNNY     73  55  53 S7        29.95F                  
6HR MIN TEMP:  67; 6HR MAX TEMP:  74;                                

FRIDAY HARBOR  PTSUNNY   65  54  67 SW7       29.98F                  
6HR MIN TEMP:  59; 6HR MAX TEMP:  70;                                

EASTSOUND      MOSUNNY   73  55  53 S7        29.95S                  
PORT ANGELES   PTSUNNY   68  57  68 W13       29.99F                  
6HR MIN TEMP:  61; 6HR MAX TEMP:  69;                                

EDIZ HOOK      CLOUDY    61  54  78 W14G21    29.98F                  
6HR MIN TEMP:  57; 6HR MAX TEMP:  62;                                

PORT TOWNSEND  PTSUNNY   68  57  68 NW9       29.97R                  
NAS WHIDBEY    PTSUNNY   64  55  72 W8        30.02F                  
6HR MIN TEMP:  63; 6HR MAX TEMP:  67;                                

ARLINGTON      MOSUNNY   78  56  46 VRB6      29.95F                  
6HR MIN TEMP:  70; 6HR MAX TEMP:  79;                                

BURLINGTON     SUNNY     81  55  41 W5        29.96F                  
$$
 
WAZ020-022-039-040-504-511-512-170100-
SOUTHWEST INTERIOR
  
CITY           SKY/WX    TMP DP  RH WIND       PRES   REMARKS
SHELTON        PTSUNNY   79  54  41 SW15G22   29.94S                  
6HR MIN TEMP:  68; 6HR MAX TEMP:  81;                                

OLYMPIA        PTSUNNY   73  60  63 SW9       29.97F                  
6HR MIN TEMP:  68; 6HR MAX TEMP:  76; 6HR PCP:  0.03;                

CHEHALIS       CLOUDY    75  61  60 VRB6G13   29.98F                  
KELSO          PTSUNNY   75  59  57 W14       29.98S                  
6HR MIN TEMP:  71; 6HR MAX TEMP:  79;                                

VANCOUVER      CLOUDY    80  54  40 VRB5      29.94F                  
6HR MIN TEMP:  70; 6HR MAX TEMP:  81;                                

SCAPPOOSE, OR  PTSUNNY   76  59  55 N8        29.95F                  
6HR MIN TEMP:  69; 6HR MAX TEMP:  80; 6HR PCP:  0.01;                

PORTLAND, OR   PTSUNNY   80  55  42 W13       29.95F                  
6HR MIN TEMP:  71; 6HR MAX TEMP:  82;                                

$$
 
WAZ021-516-517-170100-
WASHINGTON COAST
  
CITY           SKY/WX    TMP DP  RH WIND       PRES   REMARKS
FORKS          MOSUNNY   68  58  70 SW10      30.00F                  
6HR MIN TEMP:  64; 6HR MAX TEMP:  71;                                

HOQUIAM        MOSUNNY   70  61  73 W15       30.02S                  
6HR MIN TEMP:  68; 6HR MAX TEMP:  72;                                

ASTORIA, OR    CLOUDY    67  58  72 W12       30.03S                  
6HR MIN TEMP:  65; 6HR MAX TEMP:  70;                                

$$
 
WAZ019-023-024-040-567>569-170100-
CASCADE MOUNTAINS AND COLUMBIA GORGE
  
CITY           SKY/WX    TMP DP  RH WIND       PRES   REMARKS
STAMPEDE PASS  CLOUDY    60  49  66 VRB5      30.05F                  
6HR MIN TEMP:  54; 6HR MAX TEMP:  64;                                

TROUTDALE, OR  MOSUNNY   80  53  39 CALM      29.94F                  
6HR MIN TEMP:  71; 6HR MAX TEMP:  82;                                

HOOD RIVER, OR CLEAR     81  45  28 NW10G16   29.93F                  
THE DALLES, OR SUNNY     84  48  28 NW22G35   29.87F                  
6HR MIN TEMP:  77; 6HR MAX TEMP:  84;                                

$$

WAZ026-027-041>044-520-521-170100-
EAST SLOPES
  
CITY           SKY/WX    TMP DP  RH WIND       PRES   REMARKS
OMAK           MOSUNNY   83  45  26 S8        29.84F                  
6HR MIN TEMP:  73; 6HR MAX TEMP:  84;                                

WENATCHEE      MOSUNNY   82  44  26 VRB7      29.85F                  
6HR MIN TEMP:  73; 6HR MAX TEMP:  82;                                

ELLENSBURG     CLOUDY    78  49  35 W16       29.90F                  
6HR MIN TEMP:  70; 6HR MAX TEMP:  83; 6HR PCP:  0.02;                

YAKIMA         PTSUNNY   82  47  29 CALM      29.87F                  
6HR MIN TEMP:  75; 6HR MAX TEMP:  84; 6HR PCP: TRACE;                

SUNNYSIDE ARPT PTCLDY    85  50  29 W3        29.85                   
6HR MIN TEMP:  75; 6HR MAX TEMP:  85;                                

YAKIMA TC      MOCLDY    83  45  25 NW9       29.87F                  
6HR MIN TEMP:  77; 6HR MAX TEMP:  83;                                

$$

WAZ028-034-035-170100-
COLUMBIA BASIN
  
CITY           SKY/WX    TMP DP  RH WIND       PRES   REMARKS
EPHRATA        PTSUNNY   84  45  25 W10       29.86F                  
6HR MIN TEMP:  73; 6HR MAX TEMP:  84; 6HR PCP: TRACE;                

MOSES LAKE     MOSUNNY   85  48  27 VRB6      29.86F                  
PASCO          MOSUNNY   88  47  24 VRB5      29.83F                  
6HR MIN TEMP:  79; 6HR MAX TEMP:  89;                                

RICHLAND ARPT  CLEAR     88  48  24 SW7       29.83                   
6HR MIN TEMP:  81; 6HR MAX TEMP:  90;                                

HERMISTON, OR  SUNNY     88  45  22 W15       29.84F                  
6HR MIN TEMP:  78; 6HR MAX TEMP:  88;                                

$$

WAZ036>038-170100-
NORTHEAST WASHINGTON
  
CITY           SKY/WX    TMP DP  RH WIND       PRES   REMARKS
SPOKANE GEIGER PTSUNNY   72  51  47 SE9       29.92F                  
6HR MIN TEMP:  63; 6HR MAX TEMP:  72; 6HR PCP: TRACE;                

SPOKANE FELTS  PTSUNNY   73  53  49 NE5       29.91F                  
6HR MIN TEMP:  63; 6HR MAX TEMP:  75; 6HR PCP:  0.01;                

FAIRCHILD AFB  NOT AVBL                                               
COEURDALENE,ID PTSUNNY   72  51  47 S7        29.94F                  
6HR MIN TEMP:  61; 6HR MAX TEMP:  74; 6HR PCP: TRACE;                

DEER PARK      MOSUNNY   75  52  44 S5        29.91F                  
6HR MIN TEMP:  64; 6HR MAX TEMP:  75;                                

$$

WAZ029>033-170100-
SOUTHEAST WASHINGTON
  
CITY           SKY/WX    TMP DP  RH WIND       PRES   REMARKS
PULLMAN        MOSUNNY   77  46  33 SW10      29.94F                  
6HR MIN TEMP:  68; 6HR MAX TEMP:  78;                                

LEWISTON, ID   PTSUNNY   83  48  29 VRB3      29.88F                  
6HR MIN TEMP:  75; 6HR MAX TEMP:  83;                                

WALLA WALLA    MOSUNNY   83  47  28 SW7       29.87F                  
6HR MIN TEMP:  76; 6HR MAX TEMP:  84;                                

PENDLETON, OR  MOSUNNY   83  47  28 W10G18    29.88F                  
6HR MIN TEMP:  77; 6HR MAX TEMP:  85;                                

$$